Lid_Strength_Index
-0 -1 -1 -1 -1 -1 -1 -1 -1 -1 -1 -1 -1 -1 -1 -1 -1 -2 -2 -1 -1 -1 -1 -2 -2 -2 -2 -2 -2 -2 -2 -2 -1 -2 -2 -2 -2 -2 -2 -2 -1 -1 0
-1 -1 -1 -0 -1 -1 -1 -1 -1 -1 -1 -1 -0 -1 -1 -1 -1 -2 -1 -1 -1 -1 -2 -2 -2 -2 -2 -2 -2 -2 -1 -2 -2 -2 -2 -2 -2 -1 -1 -1 -1 -0 -0
-1 -1 -0 -0 -1 -2 -1 -2 -1 -1 -1 -1 -0 -0 -1 -1 -1 -1 -1 0 -1 -1 -1 -2 -2 -2 -2 -2 -2 -2 -2 -2 -2 -2 -2 -2 -1 -1 -1 -1 -0 0 1
-1 -1 -0 -0 -2 -1 -1 -0 -0 0 -0 0 0 0 -1 -1 -1 -1 -1 -0 0 -1 -1 -2 -2 -2 -2 -2 -2 -2 -2 -2 -2 -2 -1 -1 -1 -1 -0 0 1 1 1
-1 -1 -0 -1 -1 -0 -0 -0 -0 0 1 1 1 0 0 -0 -0 -0 -0 -0 0 -1 -1 -1 -2 -1 -2 -2 -2 -2 -2 -2 -2 -1 -1 -0 -1 -0 1 1 1 1 1
-1 -1 -0 -0 -1 -0 0 -0 0 -0 0 1 1 1 1 0 -0 -0 -0 -1 -1 -0 -0 -0 -1 -1 -1 -2 -2 -2 -2 -1 -1 -1 -1 -0 0 1 1 1 1 1 1
-1 -1 -0 -0 -0 0 0 -0 0 1 1 1 2 2 1 1 0 0 -0 -0 0 0 0 -0 -1 -1 -1 -1 -2 -2 -2 -1 -1 -0 0 0 1 1 1 1 1 1 1
-1 -1 -1 -0 -0 0 0 0 0 1 1 1 3 3 5 3 1 0 0 0 1 0 1 -0 -1 -1 -1 -1 -2 -2 -2 -1 -0 0 1 0 1 1 1 1 1 1 1
-0 -1 -0 -1 -0 -0 0 0 0 1 3 1 1 2 5 6 4 2 2 1 1 1 1 0 -1 -1 -1 -1 -1 -2 -1 -1 -0 1 1 1 1 1 1 1 1 1 1
-0 -1 -0 -0 0 -0 0 0 -0 1 1 3 1 1 1 2 5 6 4 3 3 2 2 1 -0 -1 -1 -1 -2 -2 -1 -1 0 1 0 0 0 1 1 1 0 -1 -1
-0 -1 -0 0 0 0 0 0 1 1 0 1 1 2 1 2 2 4 6 6 5 4 3 1 0 -1 -2 -1 -2 -1 -1 -1 -0 -0 -0 -0 0 0 -1 -1 -1 -1 -1
-0 -0 -1 -0 -0 -0 0 0 -0 -0 0 0 1 1 2 3 3 4 5 6 6 6 3 1 -0 -1 -1 -1 -2 -1 -0 1 1 1 0 -1 -1 -1 -1 -1 -0 0 -0
1 0 -0 0 0 -0 -0 0 0 0 1 1 1 1 1 2 2 3 4 7 7 6 6 3 1 -0 -1 -2 -2 -1 1 2 2 2 0 -1 -1 -1 -1 0 1 0 1
1 -0 0 -0 -0 -0 -0 -0 0 0 -0 0 1 1 2 2 2 3 4 7 8 7 6 5 1 1 0 -2 -1 -0 0 2 1 1 1 0 0 0 -0 0 0 1 3
0 -0 -0 -0 -1 -0 -0 -0 0 0 1 1 1 1 1 2 2 4 4 4 4 7 6 4 3 2 1 1 0 -0 -0 0 0 1 2 2 2 2 1 1 1 3 4
1 1 1 1 1 -0 0 0 0 0 0 0 0 0 1 1 3 2 4 3 2 3 6 4 4 2 2 1 0 -1 -1 0 1 2 2 2 3 2 2 2 3 3 5
0 1 1 1 1 0 -0 -0 -0 0 0 0 -0 0 0 -0 1 1 2 2 3 4 5 4 3 1 -1 -1 -2 -2 -1 -1 1 2 2 3 4 3 3 3 3 4 5
-0 -0 -0 0 1 1 0 0 0 0 0 1 0 0 0 0 0 0 1 2 2 2 4 3 1 0 -0 -1 -1 -1 -0 0 1 3 3 4 4 4 4 5 5 5 6
0 -0 -0 0 0 1 1 1 0 0 0 0 0 0 0 0 0 1 0 2 1 2 1 1 1 1 1 0 0 1 1 1 2 4 4 4 5 5 4 5 6 6 7
-0 -0 -0 0 1 1 1 1 1 1 1 0 -0 -0 0 -0 0 0 0 -0 -0 0 0 1 1 1 1 1 0 2 3 2 3 4 5 5 6 6 5 5 6 7 8
-0 -0 0 0 0 -0 -0 -0 -0 -0 0 0 -0 -0 -0 1 2 1 -0 -0 -0 0 1 1 1 1 2 2 1 1 2 3 3 3 5 6 6 6 5 6 6 7 8
0 -0 0 0 0 1 7 6 1 -0 -0 0 0 0 1 2 4 5 4 4 1 0 1 1 1 2 1 1 1 2 2 4 4 3 4 5 6 6 6 6 6 7 7
-0 0 0 -0 0 -0 8 8 5 -0 -0 0 0 1 2 3 2 1 6 6 6 6 4 -0 1 1 1 1 1 2 2 2 3 3 4 5 6 7 7 7 7 7 7
0 0 0 -0 -0 1 9 9 7 1 2 2 1 1 1 1 2 2 1 1 1 1 1 1 -1 -1 -0 -1 1 1 1 2 3 4 4 7 5 7 7 7 8 8 8
0 0 -0 -0 0 0 9 10 6 3 4 4 5 4 3 3 9 9 2 2 2 3 9 9 10 10 10 9 5 3 4 5 6 6 5 6 6 6 6 7 6 8 9
0 1 1 0 3 -0 9 10 6 4 4 5 5 5 9 6 11 10 3 3 4 3 4 5 4 6 8 6 9 3 4 6 7 7 5 7 7 7 8 6 6 6 7